Location: Brad
(46.1333°N, 22.7833°E)
Time: 06:27:30
(UTC+00:00)

Okean O Rocket - Pass Details

Date: 03 February 2023
Orbit: 620 x 643 km, 98.1° (Epoch: 29 March)

Event Time Altitude Azimuth Distance (km) Brightness Sun altitude
Rises 17:36:39 0° 166° (SSE) 2,906 4.9 -21.0°
Reaches altitude 10° 17:38:49 10° 166° (SSE) 2,007 4.0 -21.4°
Maximum altitude 17:43:12 87° 251° (WSW) 642 1.5 -22.2°
Drops below altitude 10° 17:47:39 10° 346° (NNW) 2,038 4.4 -23.0°
Sets 17:49:52 0° 347° (NNW) 2,955 5.2 -23.3°
